Find Starlink 5631

NORAD ID: 55346 Int'l Des: 2023-013 Owner: SPXS Country: US Constellation: starlink operational
LEOCIRCULAR

实时位置

正在加载3D地球...

关于 Starlink 5631

正在加载描述...

即将过境

Passes for default location (London). Set your location on the main map for personalized predictions.

高度历史

Loading altitude history...

两行轨道根数

1 55346U 23013R 26124.31044556 -.00000044 00000-0 79364-5 0 9998
2 55346 43.0030 348.9651 0001064 269.5912 90.4818 15.27576366180182
Epoch: May 4, 2026 • Age: 12 hours

当前状态

高度 484.8 km
速度 7.63 km/s
星下点 33.11°N, 25.32°W
发射日期 Jan 26, 2023
运行时间 3.2 years
类型 internet

技术详情

分类 Payload
质量 305.00 kg
干质量 290.00 kg
总质量 305.00 kg
长度 0.20 m
直径 2.80 m
跨度 9.00 m
形状 Box + pan
制造商 SPXS
平台类型 Starlink
阶段状态 In Orbit
所有者/国家 SPXS/US

Most Searched